Terminal Aerodrome Forecast
Issued by NWS

Home | Current Version | Previous Version | Text Only | Print | Product List | Glossary On
Versions: 1 2 3 4 5 6 7 8 9 10 11 12 13 14 15
000
FTUS44 KLIX 241123
TAFMCB
TAF
KMCB 241123Z 2412/2512 VRB03KT P6SM VCSH SCT010 BKN100
     FM241500 31005KT P6SM BKN035
      TEMPO 2417/2421 2SM TSRA OVC025CB
     FM250000 VRB03KT P6SM BKN070
     FM250900 02004KT P6SM BKN015=

USA.gov is the U.S. government's official web portal to all federal, state and local government web resources and services.